sat.trackr.live / text

‹ back to catalog

STARLINK-35009

NORAD 65449 · 2025-194R

PAYLOAD ACTIVE UNKNOWN

§ Identity

Operator
Country
US
Launch date
2025-09-03
Launch site
AFWTR
Launch vehicle
Mass (kg)
RCS (m²)

Purposes: comms

External: N2YO · Heavens-Above · Gunter

§ Orbital elements

Epoch: 2026-05-25T02:58:24.165984Z

Period
95.64 min
Inclination
97.4497°
Eccentricity
0.0002662
Mean motion
15.05654431 rev/d
Perigee alt
547.7 km
Apogee alt
551.3 km
Semi-major
6,927.6 km
B*
1.3942e-4
RAAN
359.4279°
Arg perigee
90.0023°
Mean anomaly
270.1509°
Rev number
4,115

§ Raw data

STARLINK-350091 65449U 25194R   26145.12389081  .00001954  00000+0  13942-3 0  99992 65449  97.4497 359.4279 0002662  90.0023 270.1509 15.05654431 41158

JSON: /api/v1/satellites/65449 · /tle

For live sub-satellite position, see the globe view (requires WebGL).

§ Visibility from observer

Set your observer location to see the next 7 days of passes ≥ 10°. The values pass through the URL so the page stays shareable.

No JS? Fill the form by hand. The geolocation button needs JavaScript.